星链-6370 (STARLINK-6370 )

导读 | 豆包AI

STARLINK-6370是美国太空探索技术公司(SpaceX)星链星座的一员,于2023年7月16日发射入轨。星链旨在构建全球卫星互联网,该卫星加入星座后,进一步拓展了星链的全球覆盖范围,为偏远地区、海洋等场景提供高速低延迟互联网接入服务,也增强了星座的网络服务稳定性。

基本信息
目录编号:
57373
目录名称:
STARLINK-6370
国际标识:
2023-099AX
轨道中心:
EARTH
卫星名称:
星链-6370
卫星全名:
星链-6370 (STARLINK-6370 )
卫星状态:
在轨 (已飞行973 天)
发射日期:
2023-07-16 UTC
国别 :
美国 (US)
星等 :
--
轨道信息
数据来源 国际轨道数据 AOE轨道数据
星历时间 2026-03-15T22:53:38+0800
8小时前
查看轨道信息
2026-03-11T10:00:00+0800
4天前
查看轨道信息
半长轴 6937.244km 6937.208km
偏心率 0.0001526 0.000182
轨道倾角 43.003° 43.002°
近地点辐角 263.500° 269.401°
升交点赤经 204.138° 228.793°
平近点角 96.566° 0.002°
近地点 558.048km 557.808km
远地点 560.166km 560.334km
周期 95.839分钟 95.838分钟
每日圈数 15.025273 15.02539
详细信息
固有亮度:
5
最大亮度:
2.5
卫星平台:
Starlink v1.5
覆盖范围:
全球
运营商:
太空探索技术公司
运营商所在国:
美国
制造商(研发单位):
太空探索技术公司
制造商所在国:
美国
使用方式:
暂无
卫星简介
星链(Starlink)计划是由太空探索技术公司(SpaceX)提出的一个巨型低轨卫星互联网星座项目,计划在2019年至2024年间在太空搭建由约1.2万颗卫星组成的“星链”网络,其中1584颗将部署在地球上空550千米处的近地轨道,并从2020年开始工作。该卫星仍在工作。
2D轨道图
3D轨道图
轨道高度分析图
轨道倾角分析图
轨道综合分析图
查看轨道综合分析图